JP7FSO Weather Reports


Display with metric or nautical units.
time (UTC)temp
F
wind
direction
speed
MPH
gust
MPH
rain 1hr
in
rain 24hr
in
rain mn
in
humidity
%
barometer
mb
20260502163017 49 269 0.0 0.0 0.00 0.00 0.00 72 1004.6
20260502161511 49 269 0.0 0.0 0.00 0.00 0.00 71 1004.6
20260502151516 51 269 0.0 0.0 0.00 0.00 0.00 68 1004.8
20260502140106 53 269 0.0 0.0 0.00 0.00 0.06 63 1004.8
20260502123013 57 269 0.0 0.0 0.00 0.00 0.06 56 1004.1
20260502121510 57 269 0.0 0.0 0.00 0.00 0.06 55 1004.1
20260502120107 58 255 0.0 0.0 0.00 0.00 0.06 54 1003.8
20260502114513 58 286 0.0 0.0 0.00 0.00 0.06 53 1003.8
20260502113100 59 126 0.0 0.0 0.00 0.00 0.06 50 1003.4
20260502111556 60 117 0.0 0.0 0.00 0.00 0.06 48 1003.3
20260502110059 60 124 0.0 0.0 0.00 0.00 0.06 46 1003.3
20260502104526 61 103 1.0 0.0 0.00 0.00 0.06 43 1002.9
20260502103026 61 109 1.0 0.0 0.00 0.00 0.06 39 1002.7
20260502101557 61 275 0.0 0.0 0.00 0.00 0.06 40 1002.3
20260502091508 64 321 3.0 0.0 0.00 0.00 0.06 33 1001.2
20260502070001 69 240 5.0 0.0 0.00 0.00 0.06 26 998.9
20260502064609 70 304 6.0 0.0 0.00 0.00 0.06 24 998.2
20260502063036 70 294 6.0 0.0 0.00 0.00 0.06 23 997.8
20260502061604 71 265 7.0 0.0 0.00 0.00 0.06 25 997.5
20260502054613 73 274 3.0 0.0 0.00 0.00 0.06 24 997.3
20260502053026 72 259 5.0 0.0 0.00 0.00 0.06 27 997.0
20260502051511 73 308 4.0 0.0 0.00 0.00 0.06 26 996.6
20260502050101 73 160 2.0 0.0 0.00 0.00 0.06 28 997.0
20260502044606 73 201 3.0 0.0 0.00 0.00 0.06 26 996.8
20260502043024 73 118 2.0 0.0 0.00 0.00 0.06 27 996.4
20260502041553 72 74 3.0 0.0 0.00 0.00 0.06 29 995.9
20260502040035 71 310 6.0 0.0 0.00 0.00 0.06 29 995.3
20260502034618 71 41 6.0 0.0 0.00 0.00 0.06 29 994.6
20260502033022 70 8 6.0 0.0 0.00 0.00 0.06 31 993.9
20260502031512 69 323 8.0 0.0 0.00 0.00 0.06 30 993.8
20260502030013 71 248 6.0 0.0 0.00 0.00 0.06 30 993.4
20260502024504 73 249 3.0 0.0 0.00 0.00 0.06 29 993.4
20260502023015 73 282 4.0 0.0 0.00 0.00 0.06 31 993.6
20260502021529 74 267 3.0 0.0 0.00 0.00 0.06 27 993.3
20260502020016 74 259 1.0 0.0 0.00 0.00 0.06 31 993.2
20260502014600 73 136 1.0 0.0 0.00 0.00 0.06 34 993.2
20260502013028 72 246 2.0 0.0 0.00 0.00 0.06 35 992.7
20260502011619 70 262 1.0 0.0 0.00 0.00 0.06 37 992.8
20260502010008 69 234 2.0 0.0 0.00 0.00 0.06 40 992.8
20260502003029 67 162 1.0 0.0 0.00 0.00 0.06 41 992.3
20260502001502 65 266 0.0 0.0 0.00 0.00 0.06 44 991.8
20260501234515 63 276 2.0 0.0 0.00 0.00 0.06 45 990.7
20260501233104 62 113 6.0 0.0 0.00 0.00 0.06 46 990.3
20260501231504 61 285 3.0 0.0 0.00 0.00 0.06 43 990.2
20260501230007 60 210 5.0 0.0 0.00 0.00 0.06 41 990.3
20260501224508 60 273 6.0 0.0 0.00 0.00 0.06 41 989.6
20260501223014 59 294 5.0 0.0 0.00 0.00 0.06 44 989.7
20260501221522 58 297 4.0 0.0 0.00 0.00 0.06 46 989.2
20260501220002 57 262 5.0 0.0 0.00 0.00 0.06 50 989.0
20260501214608 57 200 5.0 0.0 0.00 0.00 0.06 53 988.6
20260501213015 56 300 3.0 0.0 0.00 0.00 0.06 57 988.1
20260501211502 55 131 5.0 0.0 0.00 0.00 0.06 57 987.1
20260501210024 55 251 3.0 0.0 0.00 0.00 0.06 59 986.3
20260501204601 54 288 6.0 0.0 0.00 0.00 0.06 60 986.0
20260501203104 54 301 4.0 0.0 0.00 0.00 0.06 63 986.8
20260501201519 53 117 3.0 0.0 0.00 0.00 0.06 67 987.2
20260501200021 53 269 5.0 0.0 0.00 0.00 0.06 70 987.7
20260501194604 53 251 7.0 0.0 0.00 0.00 0.06 73 987.5
20260501193013 54 319 6.0 0.0 0.00 0.00 0.06 75 986.3
20260501191530 55 238 5.0 0.0 0.00 0.00 0.05 76 985.2
20260501190101 55 226 7.0 0.0 0.00 0.00 0.04 76 984.5
20260501184526 56 287 6.0 0.0 0.00 0.00 0.02 74 984.4
20260501180002 56 194 0.0 0.0 0.00 0.00 0.00 73 982.7
20260501174603 56 98 0.0 0.0 0.00 0.00 0.00 74 982.3
20260501173016 55 97 0.0 0.0 0.00 0.00 0.00 75 981.9